SHT3B EGCC-EGLL

Flight info

Callsign SHT3B
Flight time N/A
Altitude 19000
Route LISTO2S LISTO L612 HON HON1H
Aircraft A320/M-SDE3FGHIJ1KRWXY/S

Departure

Time 2026-05-05 21:46
Airport Manchester Airport (EGCC)

Arrival

Time N/A
Airport London Heathrow Airport (EGLL)
Time Latitude Longitude Altitude Speed Heading
2026-05-05 21:03 53.36949 -2.28696 233 ft 0 kts 134°
2026-05-05 21:28 53.36952 -2.28703 233 ft 4 kts 136°
2026-05-05 21:28 53.36974 -2.28727 234 ft 4 kts 171°
2026-05-05 21:29 53.36999 -2.28722 233 ft 4 kts 216°
2026-05-05 21:29 53.37006 -2.28712 234 ft 0 kts 225°
2026-05-05 21:32 53.37003 -2.28717 234 ft 2 kts 225°
2026-05-05 21:32 53.36982 -2.28751 234 ft 6 kts 225°
2026-05-05 21:32 53.36952 -2.28803 233 ft 7 kts 225°
2026-05-05 21:32 53.36908 -2.28876 233 ft 12 kts 224°
2026-05-05 21:33 53.36838 -2.28989 233 ft 16 kts 223°
2026-05-05 21:33 53.36735 -2.29024 233 ft 15 kts 141°
2026-05-05 21:33 53.36654 -2.28903 233 ft 16 kts 155°
2026-05-05 21:33 53.36580 -2.28765 233 ft 17 kts 114°
2026-05-05 21:34 53.36500 -2.28612 233 ft 18 kts 134°
2026-05-05 21:34 53.36420 -2.28502 233 ft 12 kts 171°
2026-05-05 21:34 53.36340 -2.28493 233 ft 12 kts 150°
2026-05-05 21:34 53.36278 -2.28390 233 ft 13 kts 134°
2026-05-05 21:35 53.36210 -2.28273 233 ft 15 kts 135°
2026-05-05 21:35 53.36136 -2.28145 233 ft 16 kts 134°
2026-05-05 21:35 53.36054 -2.28005 233 ft 17 kts 135°
2026-05-05 21:35 53.35975 -2.27873 233 ft 16 kts 140°
2026-05-05 21:36 53.35872 -2.27853 233 ft 15 kts 186°
2026-05-05 21:36 53.35762 -2.27874 233 ft 16 kts 186°
2026-05-05 21:36 53.35645 -2.27895 233 ft 16 kts 185°
2026-05-05 21:36 53.35571 -2.27907 233 ft 10 kts 186°
2026-05-05 21:37 53.35502 -2.27920 234 ft 10 kts 186°
2026-05-05 21:37 53.35433 -2.27959 234 ft 11 kts 220°
2026-05-05 21:37 53.35378 -2.28048 233 ft 11 kts 224°
2026-05-05 21:37 53.35321 -2.28141 233 ft 12 kts 223°
2026-05-05 21:38 53.35260 -2.28241 233 ft 12 kts 227°
2026-05-05 21:38 53.35204 -2.28354 233 ft 13 kts 231°
2026-05-05 21:38 53.35147 -2.28476 233 ft 14 kts 232°
2026-05-05 21:38 53.35086 -2.28606 233 ft 15 kts 230°
2026-05-05 21:39 53.35016 -2.28739 233 ft 15 kts 227°
2026-05-05 21:39 53.34941 -2.28870 233 ft 13 kts 226°
2026-05-05 21:39 53.34890 -2.28958 233 ft 10 kts 226°
2026-05-05 21:39 53.34839 -2.29043 233 ft 11 kts 218°
2026-05-05 21:40 53.34790 -2.29070 233 ft 0 kts 188°
2026-05-05 21:44 53.34785 -2.29071 233 ft 2 kts 188°
2026-05-05 21:44 53.34763 -2.29072 233 ft 5 kts 176°
2026-05-05 21:44 53.34714 -2.29048 235 ft 12 kts 153°
2026-05-05 21:44 53.34672 -2.28957 233 ft 10 kts 72°
2026-05-05 21:45 53.34691 -2.28910 233 ft 0 kts 51°
2026-05-05 21:45 53.34694 -2.28905 233 ft 7 kts 51°
2026-05-05 21:45 53.34890 -2.28493 236 ft 80 kts 51°
2026-05-05 21:46 53.35364 -2.27517 238 ft 133 kts 51°
2026-05-05 21:46 53.35999 -2.26231 630 ft 144 kts 51°
2026-05-05 21:46 53.36626 -2.24939 1345 ft 142 kts 53°
2026-05-05 21:46 53.37249 -2.23622 1901 ft 151 kts 57°
2026-05-05 21:47 53.37541 -2.22515 2093 ft 166 kts 77°
2026-05-05 21:47 53.37239 -2.19791 2494 ft 205 kts 121°
2026-05-05 21:47 53.36499 -2.18631 2725 ft 228 kts 142°
2026-05-05 21:47 53.35070 -2.17184 3216 ft 253 kts 154°
2026-05-05 21:48 53.33278 -2.16824 3995 ft 268 kts 184°
2026-05-05 21:48 53.31411 -2.17140 5007 ft 271 kts 186°
2026-05-05 21:48 53.29529 -2.17465 5978 ft 273 kts 187°
2026-05-05 21:48 53.27627 -2.17790 6922 ft 276 kts 187°
2026-05-05 21:49 53.25696 -2.18110 7764 ft 282 kts 187°
2026-05-05 21:49 53.23717 -2.18398 8576 ft 289 kts 182°
2026-05-05 21:49 53.21725 -2.17814 9376 ft 297 kts 157°
2026-05-05 21:49 53.19935 -2.16022 10174 ft 302 kts 146°
2026-05-05 21:50 53.18023 -2.14282 10475 ft 326 kts 157°
2026-05-05 21:50 53.15831 -2.12931 10760 ft 345 kts 163°
2026-05-05 21:50 53.13503 -2.11752 11401 ft 352 kts 164°
2026-05-05 21:50 53.11140 -2.10594 12116 ft 355 kts 164°
2026-05-05 21:51 53.08799 -2.09392 12853 ft 359 kts 163°
2026-05-05 21:51 53.06418 -2.08086 13625 ft 361 kts 162°
2026-05-05 21:51 53.04006 -2.06688 14339 ft 364 kts 162°
2026-05-05 21:51 53.01640 -2.05273 14994 ft 367 kts 161°
2026-05-05 21:52 52.96813 -2.02347 16293 ft 372 kts 161°
2026-05-05 21:52 52.94368 -2.00869 16947 ft 375 kts 162°
2026-05-05 21:52 52.91903 -1.99389 17608 ft 378 kts 162°
2026-05-05 21:53 52.89419 -1.97908 18270 ft 381 kts 162°
2026-05-05 21:53 52.86910 -1.96418 18807 ft 384 kts 162°
2026-05-05 21:53 52.84395 -1.94926 18993 ft 384 kts 162°
2026-05-05 21:53 52.81843 -1.93416 19040 ft 394 kts 162°
2026-05-05 21:54 52.79239 -1.91876 19050 ft 398 kts 162°
2026-05-05 21:54 52.76628 -1.90332 19047 ft 399 kts 162°
2026-05-05 21:54 52.74071 -1.88553 19039 ft 401 kts 152°
2026-05-05 21:54 52.71682 -1.86166 19034 ft 401 kts 150°
2026-05-05 21:55 52.69305 -1.83759 19033 ft 401 kts 150°
2026-05-05 21:55 52.66922 -1.81338 19039 ft 401 kts 150°
2026-05-05 21:55 52.64550 -1.78927 19038 ft 401 kts 150°
2026-05-05 21:55 52.62174 -1.76512 19035 ft 401 kts 150°
2026-05-05 21:56 52.59798 -1.74104 19034 ft 401 kts 150°
2026-05-05 21:56 52.57449 -1.71726 19036 ft 401 kts 150°
2026-05-05 21:56 52.55068 -1.69322 19035 ft 401 kts 150°
2026-05-05 21:56 52.52687 -1.66924 19041 ft 401 kts 150°
2026-05-05 21:57 52.50299 -1.64523 19040 ft 401 kts 150°
2026-05-05 21:57 52.47919 -1.62132 19039 ft 402 kts 150°
2026-05-05 21:57 52.45534 -1.59741 19043 ft 401 kts 150°
2026-05-05 21:57 52.43151 -1.57359 19045 ft 401 kts 150°
2026-05-05 21:58 52.40763 -1.54973 19044 ft 401 kts 150°
2026-05-05 21:58 52.38382 -1.52595 19048 ft 401 kts 150°
2026-05-05 21:58 52.35991 -1.50225 19048 ft 401 kts 150°
2026-05-05 21:58 52.33603 -1.47875 19045 ft 401 kts 150°
2026-05-05 21:59 52.31210 -1.45527 19046 ft 401 kts 150°
2026-05-05 21:59 52.28824 -1.43190 19047 ft 401 kts 150°
2026-05-05 21:59 52.26431 -1.40846 19046 ft 401 kts 150°
2026-05-05 21:59 52.24045 -1.38503 19049 ft 400 kts 150°
2026-05-05 22:00 52.21659 -1.36151 19047 ft 400 kts 150°
2026-05-05 22:00 52.19278 -1.33797 19048 ft 400 kts 150°
2026-05-05 22:00 52.16896 -1.31435 19045 ft 400 kts 150°
2026-05-05 22:00 52.14519 -1.29076 19048 ft 400 kts 150°